Location: Zaragoza
(41.6330°N, 0.8830°W)
Time: 12:10:10
(UTC+02:00)

ISS - Visible Passes

Search period start: 20 May 2018 00:00
Search period end: 30 May 2018 00:00
Orbit: 402 x 407 km, 51.6° (Epoch: 20 May)

Date Brightness Start Highest point End Pass type
(mag) Time Alt. Az. Time Alt. Az. Time Alt. Az.
20 May -0.9 01:38:57 18° N 01:38:57 18° N 01:40:43 10° NNE visible
20 May -0.6 03:13:48 10° NNW 03:15:46 15° N 03:17:43 10° NE visible
20 May -1.9 04:50:00 10° NW 04:52:59 32° NNE 04:55:58 10° E visible
20 May -3.9 23:06:00 10° SW 23:09:13 61° SE 23:12:28 10° ENE visible
21 May -1.4 00:43:12 10° WNW 00:45:56 24° NNW 00:48:39 10° NE visible
21 May -0.5 02:21:25 10° NW 02:23:16 14° N 02:25:08 10° NE visible
21 May -1.3 03:57:57 10° NW 04:00:38 23° NNE 04:03:19 10° ENE visible
21 May -3.9 05:34:08 10° WNW 05:37:22 69° SW 05:40:37 10° SE visible
21 May -3.1 22:14:12 10° SSW 22:17:07 31° SE 22:20:04 10° ENE visible
21 May -2.1 23:50:33 10° W 23:53:34 34° NNW 23:56:37 10° NE visible
22 May -0.6 01:28:47 10° NW 01:30:47 15° N 01:32:46 10° NNE visible
22 May -0.9 03:05:53 10° NNW 03:08:13 18° NNE 03:10:32 10° ENE visible
22 May -3.4 04:41:56 10° NW 04:45:11 64° NNE 04:48:25 10° ESE visible
22 May -3.2 22:58:03 10° WSW 23:01:16 57° NNW 23:04:30 10° NE visible
23 May -0.8 00:36:01 10° WNW 00:38:17 17° NNW 00:40:33 10° NNE visible
23 May -0.6 02:13:42 10° NNW 02:15:44 15° N 02:17:45 10° NE visible
23 May -2.3 03:49:49 10° NW 03:52:54 37° NNE 03:55:58 10° E visible
23 May -2.9 05:26:28 10° WNW 05:29:17 27° SW 05:32:07 10° SSE visible
23 May -3.9 22:05:47 10° SW 22:09:03 78° SE 22:12:19 10° ENE visible
23 May -1.1 23:43:13 10° WNW 23:45:50 22° NNW 23:48:27 10° NE visible
24 May -0.5 01:21:20 10° NNW 01:23:13 14° N 01:25:05 10° NE visible
24 May -1.5 02:57:44 10° NW 03:00:12 25° N 03:00:12 25° N visible
24 May-0.904:40:43SE04:40:43SE04:32:39WNWvisible
24 May -1.7 22:50:29 10° W 22:53:25 30° NNW 22:56:22 10° NE visible
25 May -0.6 00:28:45 10° NW 00:30:40 15° N 00:32:36 10° NNE visible
25 May -1.1 02:05:38 10° NNW 02:08:06 19° NNE 02:08:09 19° NNE visible
25 May -2.6 21:57:53 10° WSW 22:01:03 46° NNW 22:04:14 10° NE visible
25 May -0.7 23:35:59 10° NW 23:38:08 16° N 23:40:18 10° NNE visible
26 May -0.8 01:13:27 10° NNW 01:15:35 16° N 01:17:03 13° NE visible
26 May -0.7 02:49:32 10° NW 02:49:39 11° NW 02:49:39 11° NW visible
26 May -1.0 22:43:08 10° WNW 22:45:38 20° NNW 22:48:07 10° NNE visible
27 May -0.7 00:21:08 10° NNW 00:23:02 14° N 00:24:56 10° NE visible
27 May -1.2 01:57:23 10° NW 01:58:47 20° NNW 01:58:47 20° NNW visible
27 May -0.8 23:28:35 10° NW 23:30:27 14° N 23:32:20 10° NNE visible
28 May -1.4 01:05:16 10° NW 01:07:51 21° NNE 01:08:01 21° NNE visible
28 May -0.8 22:35:49 10° NW 22:37:53 15° N 22:39:56 10° NNE visible
29 May -1.0 00:13:04 10° NNW 00:15:19 17° NNE 00:17:18 11° NE visible
29 May -1.0 01:49:08 10° NW 01:49:55 16° NW 01:49:55 16° NW visible
29 May -0.9 23:20:46 10° NNW 23:22:44 15° N 23:24:42 10° NE visible
